[[{"header":{"parameterUnit":"m.s-1","parameterCategory":1,"la1":30.2991,"la2":30.254,"lo1":-89.0895,"lo2":-89.0444,"dy":0.0017,"dx":0.0017,"nx":28,"ny":28,"refTime":"2023-09-20T09:00:00:Z","depth":0,"parameterNumber":2,"parameterNumberName":"U-component_of_WINDS"},"data":[0,0,0,0,0,0,0,0,0,0,0,0,0,0,0,0,0,0,0,0,0,0,0,0,0,0,0,0,0,0,0,0,0,0,0,0,0,0,0,0,0,0,0,0,0,0,0,0,0,0,0,0,0,0,0,0,0,0,-2.7382,-2.7383,0,-2.7528,-2.753,-2.7531,-2.7462,-2.7458,-2.7454,-2.7451,-2.7609,-2.7617,-2.7624,0,0,0,0,0,0,0,0,0,0,0,0,0,-2.705,-2.7056,-2.7382,-2.7384,-2.7385,-2.7528,-2.753,-2.7532,-2.7462,-2.7458,-2.7453,-2.7449,-2.7607,-2.7616,-2.7625,0,0,0,0,0,0,0,0,0,0,0,0,0,-2.7195,-2.7058,-2.7381,-2.7368,-2.7368,-2.7527,-2.753,-2.7532,-2.7463,-2.7458,-2.7452,-2.7447,-2.7604,-2.7615,-2.7626,-2.781,0,0,-2.7662,-2.7667,0,0,0,0,0,0,0,0,-2.7187,-2.7207,-2.7368,-2.7369,-2.7369,-2.7471,-2.7471,-2.7626,-2.7465,-2.7428,-2.7451,-2.7444,-2.7568,-2.7582,-2.7622,-2.7818,-2.7824,-2.7663,-2.767,-2.7675,-2.7678,0,0,0,0,0,0,0,-2.7177,-2.7201,-2.744,-2.737,-2.7371,-2.7357,-2.7371,-2.75,-2.7528,-2.743,-2.7426,-2.7443,-2.7568,-2.7611,-2.7626,-2.7827,-2.7662,-2.7673,-2.768,-2.7684,-2.818,-2.8186,0,0,0,0,0,0,-2.7166,-2.7193,-2.7435,-2.7444,-2.7262,-2.7367,-2.7383,-2.7444,-2.7526,-2.7533,-2.7448,-2.744,-2.7594,-2.7612,-2.7631,-2.7851,-2.7675,-2.7685,-2.7692,-2.8174,-2.8182,-2.8188,0,0,0,0,0,0,-2.7159,-2.7189,-2.7429,-2.7317,-2.7347,-2.7379,-2.7448,-2.745,-2.7493,-2.7539,-2.7545,-2.7487,-2.7591,-2.7615,-2.7765,-2.7856,-2.7691,-2.7701,-2.8167,-2.8176,-2.8185,-2.8294,0,0,0,0,0,0,-2.715,-2.7186,-2.7255,-2.7319,-2.7353,-2.7559,-2.7453,-2.7457,-2.7513,-2.7503,-2.7578,-2.7585,-2.7588,-2.7749,-2.7777,-2.7869,-2.771,-2.8159,-2.8171,-2.8182,-2.8282,-2.8306,-2.8326,0,0,0,0,0,-2.7139,-2.7282,-2.7259,-2.7288,-2.7439,-2.7565,-2.7584,-2.7583,-2.752,-2.759,-2.762,-2.7582,-2.7841,-2.7765,-2.7796,-2.7893,-2.8153,-2.8167,-2.8181,-2.8273,-2.8301,-2.8325,0,0,0,0,0,0,-2.7231,-2.729,-2.7265,-2.7433,-2.7494,-2.7553,-2.7641,-2.7613,-2.7696,-2.7683,-2.7681,-2.7698,-2.7854,-2.7889,-2.7802,-2.8075,-2.7988,-2.8009,-2.8047,-2.8074,-2.8096,-2.8085,-2.772,0,0,0,0,0,-2.727,-2.7365,-2.7412,-2.7556,-2.7587,-2.7609,-2.7664,-2.7657,-2.7722,-2.7748,-2.7788,-2.7855,-2.7951,-2.8014,-2.8105,-2.8287,-2.8303,-2.8369,-2.8391,-2.8408,-2.8427,-2.8526,-2.8556,-2.8234,-2.8234,-2.8234,0,0,-2.7353,-2.7397,-2.7458,-2.7576,-2.7622,-2.7722,-2.7632,-2.7742,-2.7817,-2.7766,-2.7909,-2.7942,-2.8016,-2.8182,-2.8258,-2.8216,-2.8519,-2.8426,-2.844,-2.8449,-2.8543,-2.8574,-2.8601,-2.8244,-2.8242,-2.8241,0,0,-2.7556,-2.7598,-2.7722,-2.777,-2.784,-2.7853,-2.7883,-2.7946,-2.7965,-2.8108,-2.8072,-2.8163,-2.8328,-2.8382,-2.8431,-2.8653,-2.8622,-2.8683,-2.8797,-2.8894,-2.8919,-2.8941,-2.9021,-2.905,-2.8701,-2.8702,-2.8702,0,-2.7651,-2.7798,-2.779,-2.7903,-2.7956,-2.7911,-2.8038,-2.8085,-2.8183,-2.8222,-2.8173,-2.8379,-2.8426,-2.8604,-2.8658,-2.8699,-2.8735,-2.8675,-2.8915,-2.8938,-2.8959,-2.9035,-2.9065,-2.8709,-2.8708,-2.8707,-2.8706,0,-2.7912,-2.8015,-2.8107,-2.8199,-2.8263,-2.8382,-2.8394,-2.846,-2.8448,-2.8467,-2.8615,-2.8669,-2.877,-2.8812,-2.8802,-2.899,-2.8961,-2.8914,-2.8826,-2.8996,-2.9068,-2.9097,-2.8719,-2.8716,-2.8714,-2.8712,0,0,-2.8178,-2.8262,-2.8297,-2.8337,-2.8411,-2.8492,-2.861,-2.8705,-2.8762,-2.8832,-2.8931,-2.9072,-2.9028,-2.9084,-2.908,-2.9165,-2.9338,-2.9107,-2.9109,-2.9148,-2.9548,-2.9583,-2.9617,-2.9317,-2.9322,-2.9327,-2.9542,0,-2.8386,-2.8588,-2.8585,-2.8774,-2.8869,-2.8828,-2.893,-2.8988,-2.9009,-2.9095,-2.912,-2.9219,-2.9154,-2.9187,-2.9269,-2.9299,-2.9418,-2.9283,-2.9412,-2.9417,-2.9395,-2.9654,-2.9692,-2.9893,-2.957,-2.9575,-2.9578,0,-2.8656,-2.873,-2.8928,-2.8987,-2.9027,-2.9119,-2.9206,-2.9288,-2.9353,-2.9363,-2.9425,-2.9407,-2.9529,-2.9438,-2.9607,-2.9515,-2.9568,-2.9591,-2.9599,-2.9611,-2.9508,-2.9675,-2.9956,-2.9987,-2.9622,-2.9618,-2.9615,0,-2.883,-2.898,-2.9117,-2.9154,-2.9226,-2.9292,-2.9326,-2.9385,-2.9443,-2.952,-2.9558,-2.965,-2.97,-2.9773,-2.9782,-2.9714,-2.9952,-2.9861,-2.9965,-2.9965,-3.0018,-3.0015,-3.0313,-3.0051,-3.0051,-3.005,-3.005,0,-2.9062,-2.9185,-2.9196,-2.9281,-2.9418,-2.9413,-2.955,-2.9578,-2.9631,-2.9722,-2.9693,-2.978,-2.9786,-2.9876,-2.9885,-3.0024,-3.0047,-3.006,-3.0061,-3.0063,-3.0061,-3.0097,-3.0084,-3.0058,-3.0057,-3.0055,-3.0054,0,-2.928,-2.9292,-2.9439,-2.9495,-2.9512,-2.961,-2.9659,-2.9741,-2.9758,-2.9875,-2.9902,-2.9931,-3.0035,-3.0051,-3.0175,-3.018,-3.0347,-3.0333,-3.0324,-3.0322,-3.0425,-3.0416,-3.0758,-3.0803,-3.0512,-3.0515,-3.0517,0,-2.9428,-2.9521,-2.9585,-2.9643,-2.9679,-2.9773,-2.983,-2.983,-2.9892,-2.9972,-3.0045,-3.0146,-3.0226,-3.0396,-3.043,-3.0524,-3.0513,-3.0626,-3.0527,-3.0526,-3.0515,-3.051,-3.0519,-3.0646,-3.0649,-3.0652,-3.0654,0,-2.9689,-2.969,-2.9772,-2.9858,-2.9927,-2.9995,-3.0059,-3.0108,-3.0116,-3.0188,-3.0292,-3.0354,-3.0479,-3.058,-3.0673,-3.0711,-3.0686,-3.0684,-3.0714,-3.0717,-3.0707,-3.0714,-3.0376,-3.0677,-3.0675,-3.0673,-3.0672,-3.0671,-2.9876,-2.9957,-3.0014,-3.0108,-3.0155,-3.0215,-3.0294,-3.0321,-3.0407,-3.0506,-3.0501,-3.0617,-3.0681,-3.0803,-3.0847,-3.0939,-3.0902,-3.0945,-3.0956,-3.0966,-3.0976,-3.0692,-3.0956,-3.0956,-3.0955,-3.0954,-3.0954,0,-3.0136,-3.017,-3.0256,-3.0345,-3.0419,-3.0384,-3.0453,-3.0518,-3.0619,-3.0679,-3.0758,-3.0878,-3.0976,-3.1017,-3.1114,-3.118,-3.117,-3.1205,-3.1201,-3.121,-3.1003,-3.0968,-3.1211,-3.1211,-3.1211,-3.1211,-3.1211,-3.1211,-3.0279,-3.0413,-3.0421,-3.0579,-3.0614,-3.0724,-3.0766,-3.0823,-3.087,-3.1005,-3.1085,-3.111,-3.1163,-3.1263,-3.1352,-3.1362,-3.1399,-3.144,-3.1444,-3.1251,-3.1225,-3.12,-3.1167,-3.1448,-3.1448,-3.1643,-3.1645,-3.1647]},{"header":{"parameterUnit":"m.s-1","parameterCategory":1,"la1":30.2991,"la2":30.254,"lo1":-89.0895,"lo2":-89.0444,"dy":0.0017,"dx":0.0017,"nx":28,"ny":28,"refTime":"2023-09-20T09:00:00:Z","depth":0,"parameterNumber":3,"parameterNumberName":"V-component_of_WINDS"},"data":[0,0,0,0,0,0,0,0,0,0,0,0,0,0,0,0,0,0,0,0,0,0,0,0,0,0,0,0,0,0,0,0,0,0,0,0,0,0,0,0,0,0,0,0,0,0,0,0,0,0,0,0,0,0,0,0,0,0,-1.2424,-1.2424,0,-1.248,-1.2481,-1.2481,-1.2515,-1.2515,-1.2515,-1.2516,-1.2572,-1.2573,-1.2574,0,0,0,0,0,0,0,0,0,0,0,0,0,-1.2343,-1.2344,-1.2423,-1.2424,-1.2425,-1.248,-1.2481,-1.2482,-1.2515,-1.2515,-1.2515,-1.2516,-1.2571,-1.2573,-1.2574,0,0,0,0,0,0,0,0,0,0,0,0,0,-1.2386,-1.2344,-1.2423,-1.2448,-1.2451,-1.248,-1.2481,-1.2482,-1.2515,-1.2515,-1.2515,-1.2516,-1.2571,-1.2573,-1.2575,-1.2582,0,0,-1.2581,-1.2582,0,0,0,0,0,0,0,0,-1.2384,-1.2389,-1.2444,-1.2447,-1.245,-1.2491,-1.2473,-1.2515,-1.2515,-1.2491,-1.2516,-1.2516,-1.2544,-1.2549,-1.2559,-1.2585,-1.2587,-1.2581,-1.2582,-1.2583,-1.2584,0,0,0,0,0,0,0,-1.2381,-1.2387,-1.2446,-1.2445,-1.2448,-1.2456,-1.2462,-1.2481,-1.2515,-1.2493,-1.2495,-1.2502,-1.2546,-1.2557,-1.256,-1.2588,-1.2581,-1.2583,-1.2584,-1.2585,-1.2623,-1.2623,0,0,0,0,0,0,-1.2374,-1.2384,-1.2444,-1.2448,-1.2417,-1.2457,-1.2465,-1.2477,-1.2515,-1.2521,-1.2501,-1.2503,-1.2553,-1.2558,-1.2562,-1.2574,-1.2583,-1.2585,-1.2586,-1.2623,-1.2623,-1.2623,0,0,0,0,0,0,-1.2372,-1.2379,-1.2442,-1.2417,-1.2425,-1.2458,-1.2473,-1.2478,-1.2489,-1.2522,-1.2528,-1.2506,-1.2553,-1.2559,-1.2577,-1.2576,-1.2586,-1.2588,-1.2624,-1.2623,-1.2623,-1.2596,0,0,0,0,0,0,-1.237,-1.2378,-1.2382,-1.2416,-1.2426,-1.2456,-1.2473,-1.2479,-1.2493,-1.2495,-1.2528,-1.2533,-1.2554,-1.2574,-1.2579,-1.2579,-1.2589,-1.2624,-1.2624,-1.2623,-1.2597,-1.2595,-1.2593,0,0,0,0,0,-1.2367,-1.2372,-1.2382,-1.2389,-1.2432,-1.2456,-1.2462,-1.2486,-1.2492,-1.2496,-1.2517,-1.2532,-1.2575,-1.2575,-1.2582,-1.2582,-1.2624,-1.2624,-1.2623,-1.2598,-1.2596,-1.2593,0,0,0,0,0,0,-1.2335,-1.2377,-1.2388,-1.2405,-1.2427,-1.2462,-1.2467,-1.2482,-1.2502,-1.2504,-1.2532,-1.2539,-1.2554,-1.257,-1.2569,-1.2591,-1.2601,-1.2602,-1.258,-1.2578,-1.2576,-1.2572,-1.2591,0,0,0,0,0,-1.2331,-1.2347,-1.2382,-1.2393,-1.2404,-1.2433,-1.2445,-1.2462,-1.2485,-1.2494,-1.2517,-1.2538,-1.2557,-1.2568,-1.2587,-1.26,-1.2607,-1.2603,-1.2601,-1.2599,-1.2599,-1.2607,-1.2606,-1.2622,-1.2622,-1.2622,0,0,-1.232,-1.2345,-1.2354,-1.2388,-1.2407,-1.2423,-1.2441,-1.2457,-1.2469,-1.2497,-1.2515,-1.2532,-1.2558,-1.2573,-1.2581,-1.2587,-1.2597,-1.2599,-1.2597,-1.2598,-1.2607,-1.2605,-1.2604,-1.2621,-1.2621,-1.2621,0,0,-1.231,-1.2331,-1.2343,-1.2361,-1.239,-1.2409,-1.2412,-1.2445,-1.2457,-1.2476,-1.2497,-1.2511,-1.2543,-1.256,-1.2573,-1.257,-1.2584,-1.2575,-1.2564,-1.2571,-1.257,-1.2569,-1.2567,-1.2566,-1.2575,-1.2575,-1.2575,0,-1.2294,-1.232,-1.2346,-1.2362,-1.2376,-1.2402,-1.2413,-1.243,-1.2463,-1.2471,-1.2478,-1.2517,-1.2537,-1.2556,-1.2555,-1.2565,-1.2569,-1.2571,-1.2568,-1.2567,-1.2566,-1.2565,-1.2565,-1.2574,-1.2574,-1.2574,-1.2574,0,-1.2298,-1.2316,-1.2322,-1.2353,-1.2368,-1.2381,-1.2409,-1.2421,-1.2436,-1.2455,-1.2473,-1.2497,-1.2521,-1.2527,-1.2542,-1.2549,-1.2552,-1.2562,-1.2573,-1.2563,-1.2562,-1.2562,-1.2572,-1.2572,-1.2573,-1.2573,0,0,-1.227,-1.2316,-1.2318,-1.2333,-1.2366,-1.238,-1.2394,-1.2418,-1.2427,-1.2449,-1.2461,-1.2487,-1.2497,-1.2512,-1.2529,-1.2535,-1.253,-1.2545,-1.2546,-1.2541,-1.2539,-1.253,-1.2529,-1.254,-1.254,-1.254,-1.2536,0,-1.2265,-1.2292,-1.2316,-1.2334,-1.2351,-1.2375,-1.2388,-1.2409,-1.2427,-1.2443,-1.2462,-1.248,-1.2492,-1.2501,-1.2509,-1.2529,-1.253,-1.253,-1.2551,-1.2552,-1.2544,-1.2529,-1.252,-1.2515,-1.2536,-1.2536,-1.2536,0,-1.2262,-1.2283,-1.2303,-1.2335,-1.2343,-1.2353,-1.2377,-1.2392,-1.2416,-1.2429,-1.2445,-1.2464,-1.2479,-1.2488,-1.251,-1.2509,-1.2519,-1.2531,-1.2531,-1.2534,-1.2543,-1.2531,-1.2514,-1.2513,-1.2536,-1.2536,-1.2536,0,-1.2239,-1.2273,-1.2289,-1.2301,-1.2338,-1.2345,-1.236,-1.2385,-1.2398,-1.2419,-1.2427,-1.2449,-1.2461,-1.2477,-1.2501,-1.2505,-1.2519,-1.2531,-1.253,-1.2529,-1.2531,-1.2531,-1.2516,-1.2538,-1.2538,-1.2538,-1.2538,0,-1.223,-1.2241,-1.2279,-1.2289,-1.2302,-1.2329,-1.2341,-1.2359,-1.2381,-1.2394,-1.2417,-1.2429,-1.2459,-1.2474,-1.2493,-1.2507,-1.2513,-1.2523,-1.2527,-1.2521,-1.2519,-1.2527,-1.2528,-1.2538,-1.2538,-1.2538,-1.2538,0,-1.2207,-1.2233,-1.2252,-1.2286,-1.2294,-1.2302,-1.2331,-1.2341,-1.236,-1.2377,-1.2382,-1.2412,-1.2431,-1.2456,-1.2484,-1.2496,-1.2508,-1.2516,-1.25,-1.2503,-1.25,-1.25,-1.249,-1.2489,-1.2512,-1.2512,-1.2512,0,-1.2199,-1.2209,-1.2243,-1.2254,-1.2269,-1.2287,-1.23,-1.2327,-1.234,-1.2368,-1.2375,-1.2396,-1.2414,-1.2444,-1.2468,-1.2488,-1.2496,-1.2491,-1.2499,-1.2492,-1.2496,-1.2495,-1.2496,-1.2489,-1.2489,-1.2488,-1.2488,0,-1.2183,-1.2196,-1.2214,-1.2237,-1.2252,-1.2272,-1.2292,-1.2299,-1.233,-1.2343,-1.2364,-1.2378,-1.2406,-1.2426,-1.245,-1.2466,-1.2482,-1.2485,-1.2486,-1.2479,-1.2469,-1.2474,-1.2494,-1.2485,-1.2486,-1.2486,-1.2486,-1.2486,-1.2167,-1.2177,-1.2202,-1.2222,-1.224,-1.2259,-1.227,-1.2291,-1.2308,-1.2333,-1.2348,-1.2368,-1.2392,-1.2425,-1.244,-1.2456,-1.2462,-1.2463,-1.2464,-1.2463,-1.2461,-1.2467,-1.246,-1.246,-1.2461,-1.2461,-1.2461,0,-1.2152,-1.217,-1.2188,-1.2216,-1.2231,-1.2246,-1.2269,-1.228,-1.2297,-1.2319,-1.2337,-1.236,-1.238,-1.2405,-1.2427,-1.2434,-1.2442,-1.2439,-1.2438,-1.2442,-1.2454,-1.2451,-1.2432,-1.2432,-1.2432,-1.2432,-1.2432,-1.2432,-1.2146,-1.2162,-1.2177,-1.2202,-1.222,-1.224,-1.2252,-1.2269,-1.2286,-1.2311,-1.2328,-1.2344,-1.2367,-1.2391,-1.241,-1.2416,-1.2423,-1.2418,-1.2427,-1.2438,-1.2441,-1.2443,-1.244,-1.2419,-1.2419,-1.2413,-1.2413,-1.2412]}]]